FW1093 Weather Reports


time (UTC)temp
C
wind
direction
speed
KPH
gust
KPH
rain 1hr
cm
rain 24hr
cm
rain mn
cm
humidity
%
barometer
mb
20260502180329 10 281 0.0 4.8 0.00 0.13 0.13 73 1011.8
20260502170332 10 252 0.0 8.0 0.00 0.13 0.13 78 1011.9
20260502164318 11 77 3.2 9.7 0.00 0.13 0.13 75 1011.6
20260502163312 12 321 1.6 6.4 0.00 0.13 0.13 69 1011.4
20260502162330 13 340 0.0 1.6 0.00 0.13 0.13 69 1011.4
20260502161352 13 2 0.0 3.2 0.00 0.13 0.13 69 1011.3
20260502160352 13 15 1.6 4.8 0.00 0.13 0.13 69 1011.6
20260502152329 12 240 0.0 1.6 0.00 0.13 0.13 78 1011.7
20260502151321 12 136 0.0 1.6 0.00 0.13 0.13 76 1012.0
20260502150340 12 184 0.0 1.6 0.00 0.13 0.13 78 1012.0
20260502130315 9 276 0.0 1.6 0.00 0.13 0.13 93 1012.3
20260502123321 8 278 0.0 0.0 0.00 0.13 0.13 95 1012.2
20260502122315 8 278 0.0 0.0 0.00 0.13 0.13 95 1012.1
20260502121354 8 278 0.0 1.6 0.00 0.13 0.13 95 1012.2
20260502120330 8 125 0.0 0.0 0.03 0.13 0.13 95 1012.2
20260502115320 8 125 0.0 1.6 0.05 0.13 0.13 95 1012.0
20260502114340 8 124 0.0 1.6 0.08 0.13 0.13 95 1012.1
20260502113315 8 124 0.0 1.6 0.08 0.13 0.13 95 1012.1
20260502112356 7 124 0.0 0.0 0.08 0.13 0.13 95 1012.3
20260502111328 7 124 0.0 0.0 0.08 0.13 0.13 95 1012.4
20260502110325 7 124 0.0 1.6 0.05 0.10 0.10 95 1012.4
20260502105317 7 124 0.0 0.0 0.03 0.08 0.08 94 1012.1
20260502104314 7 124 0.0 0.0 0.00 0.05 0.05 94 1012.4
20260502103336 7 124 0.0 0.0 0.00 0.05 0.05 94 1012.2
20260502102329 7 124 0.0 0.0 0.00 0.05 0.05 94 1012.2
20260502101325 7 124 0.0 0.0 0.00 0.05 0.05 94 1012.2
20260502100316 7 124 0.0 0.0 0.00 0.05 0.05 94 1012.2
20260502091316 7 124 0.0 0.0 0.05 0.05 0.05 93 1011.8
20260502090337 7 124 0.0 0.0 0.05 0.05 0.05 93 1011.6
20260502071337 8 124 0.0 0.0 0.00 0.00 0.00 90 1011.6
20260502070333 8 124 0.0 0.0 0.00 0.00 0.00 89 1012.0
20260502065322 8 124 0.0 0.0 0.00 0.00 0.00 89 1011.7
20260502064316 8 124 0.0 0.0 0.00 0.00 0.00 88 1012.1
20260502063327 8 124 0.0 0.0 0.00 0.00 0.00 87 1011.9
20260502062346 8 124 0.0 0.0 0.00 0.00 0.00 85 1012.0
20260502061318 8 124 0.0 0.0 0.00 0.00 0.00 84 1011.8
20260502060313 8 124 0.0 0.0 0.00 0.00 0.00 82 1011.9
20260502055330 8 124 0.0 0.0 0.00 0.00 0.00 81 1012.0
20260502054351 8 124 0.0 0.0 0.00 0.00 0.00 81 1012.1
20260502053350 9 124 0.0 0.0 0.00 0.00 0.00 80 1012.2
20260502052324 9 124 0.0 1.6 0.00 0.00 0.00 79 1011.8
20260502051318 9 124 0.0 1.6 0.00 0.00 0.00 78 1012.1
20260502050314 9 124 0.0 1.6 0.00 0.00 0.00 78 1012.3
20260502045318 9 146 0.0 1.6 0.00 0.00 0.00 78 1012.1
20260502044312 9 147 0.0 0.0 0.00 0.00 0.00 78 1012.1
20260502043333 9 148 0.0 0.0 0.00 0.00 0.00 78 1012.1
20260502042331 9 148 0.0 1.6 0.00 0.00 0.00 78 1012.1
20260502041321 8 137 0.0 0.0 0.00 0.00 0.00 78 1012.2
20260502040320 8 138 0.0 0.0 0.00 0.00 0.00 77 1012.2
20260502035332 9 137 0.0 0.0 0.00 0.00 0.00 77 1012.2
20260502034329 9 138 0.0 0.0 0.00 0.00 0.00 75 1012.1
20260502033321 10 138 0.0 0.0 0.00 0.00 0.00 74 1012.2
20260502032315 10 137 0.0 0.0 0.00 0.00 0.00 74 1012.3
20260502031330 10 138 0.0 0.0 0.00 0.00 0.00 73 1012.3
20260502030321 10 138 0.0 0.0 0.00 0.00 0.00 72 1012.4
20260502025313 10 138 0.0 0.0 0.00 0.00 0.00 72 1012.5
20260502024354 10 138 0.0 0.0 0.00 0.00 0.00 71 1012.3
20260502023325 11 138 0.0 0.0 0.00 0.00 0.00 69 1012.3
20260502022312 11 138 0.0 1.6 0.00 0.00 0.00 68 1012.5
20260502021332 11 174 0.0 1.6 0.00 0.00 0.00 68 1012.4
20260502020327 11 137 0.0 1.6 0.00 0.00 0.00 67 1012.4
20260502015337 11 136 0.0 1.6 0.00 0.03 0.00 67 1012.4
20260502014326 11 165 0.0 1.6 0.00 0.03 0.00 66 1012.5
20260502013319 11 148 0.0 0.0 0.00 0.03 0.00 66 1012.6
20260502012314 11 148 0.0 1.6 0.00 0.03 0.00 66 1012.5
20260502011336 11 74 0.0 1.6 0.00 0.03 0.00 65 1012.4
20260502010329 11 139 0.0 3.2 0.00 0.03 0.00 63 1012.2
20260502005327 12 283 0.0 4.8 0.00 0.03 0.00 63 1012.2
20260502004320 12 281 0.0 1.6 0.00 0.03 0.00 62 1012.2
20260502003315 12 159 0.0 0.0 0.00 0.03 0.00 61 1012.1
20260502002337 12 160 0.0 0.0 0.00 0.03 0.00 60 1011.8
20260502001332 12 161 0.0 1.6 0.00 0.03 0.00 59 1011.6
20260502000327 13 109 0.0 6.4 0.00 0.03 0.00 57 1011.3
20260501235321 13 96 0.0 4.8 0.00 0.03 0.00 56 1011.1
20260501234339 13 131 0.0 3.2 0.00 0.03 0.00 54 1011.1
20260501233335 13 153 0.0 1.6 0.00 0.03 0.00 52 1010.8
20260501232333 14 210 0.0 11.3 0.00 0.03 0.00 49 1010.5
20260501231326 15 83 0.0 1.6 0.00 0.03 0.00 44 1010.3
20260501225328 16 173 0.0 3.2 0.00 0.05 0.00 40 1010.1
20260501224348 16 279 0.0 0.0 0.00 0.05 0.00 39 1010.1
20260501223326 17 326 0.0 0.0 0.00 0.05 0.00 37 1010.1
20260501222320 18 44 0.0 1.6 0.00 0.05 0.00 36 1010.1
20260501221343 18 284 0.0 4.8 0.00 0.05 0.00 37 1010.0
20260501220332 17 119 0.0 4.8 0.00 0.05 0.00 33 1010.0
20260501215325 17 7 1.6 4.8 0.00 0.23 0.00 35 1010.1
20260501214319 18 21 0.0 6.4 0.00 0.23 0.00 36 1010.1
20260501213356 17 283 1.6 3.2 0.00 0.23 0.00 35 1010.0
20260501212330 17 354 0.0 4.8 0.00 0.23 0.00 34 1010.2
20260501211324 18 352 1.6 6.4 0.00 0.23 0.00 32 1010.1
20260501210317 18 269 1.6 4.8 0.00 0.23 0.00 37 1010.0
20260501205314 18 283 1.6 4.8 0.00 0.23 0.00 33 1010.0
20260501204320 17 28 1.6 6.4 0.00 0.23 0.00 34 1010.2
20260501203311 17 58 1.6 8.0 0.00 0.23 0.00 35 1010.1
20260501202332 17 299 1.6 8.0 0.00 0.23 0.00 36 1010.0
20260501201325 17 288 0.0 4.8 0.00 0.23 0.00 37 1010.2
20260501200322 17 45 3.2 8.0 0.00 0.23 0.00 38 1010.3
20260501195320 17 283 3.2 8.0 0.00 0.23 0.00 36 1010.4
20260501194336 17 356 3.2 6.4 0.00 0.23 0.00 39 1010.4
20260501193329 17 54 1.6 8.0 0.00 0.23 0.00 37 1010.7
20260501192350 17 291 3.2 8.0 0.00 0.23 0.00 36 1010.8
20260501191322 17 278 0.0 11.3 0.00 0.23 0.00 37 1010.6
20260501190318 17 224 0.0 6.4 0.00 0.23 0.00 39 1010.7
20260501185337 16 328 4.8 9.7 0.00 0.23 0.00 37 1010.9
20260501184335 16 297 1.6 8.0 0.00 0.23 0.00 38 1011.0
20260501183334 16 254 3.2 9.7 0.00 0.23 0.00 40 1011.2
20260501182328 16 293 3.2 8.0 0.00 0.23 0.00 44 1011.2
20260501181320 16 281 4.8 9.7 0.00 0.23 0.00 39 1011.3